Simultaneous Nadir Overpasses (SNOs) Predictions

Prediction of SNOs between FY3D and LANDSAT-8 Satellite Orbit:

Table of predicted SNOs for the next 14.0 days since TLE Epoch: 6/13/2020
Index Date (FY3D) Time (FY3D) Lat,Lon (FY3D) SZA (FY3D ) Date (LANDSAT-8) Time (LANDSAT-8) Lat,Lon (LANDSAT-8) SZA (LANDSAT-8 ) Distance(km) Time Diff (sec)
1 06/13/2020 10:26:53 70.63, 20.07 47.32 06/13/2020 10:27:59 70.63, 20.13 47.31 1.92 66
2 06/13/2020 11:17:34 -70.52,-172.43 132.80 06/13/2020 11:17:29 -70.51,-172.41 132.81 0.93 5
3 06/13/2020 12:08:12 70.10, -4.46 46.77 06/13/2020 12:07:01 70.14, -5.31 46.83 32.53 71
4 06/16/2020 02:43:18 70.72, 135.84 47.30 06/16/2020 02:44:29 70.66, 136.05 47.23 10.05 71
5 06/16/2020 03:33:58 -70.55, -56.56 132.88 06/16/2020 03:33:59 -70.55, -56.48 132.89 2.98 1
6 06/16/2020 04:24:40 70.35, 111.07 46.91 06/16/2020 04:23:27 70.39, 110.93 46.97 7.21 73
7 06/18/2020 18:59:46 70.96,-108.66 47.50 06/18/2020 19:00:56 70.85,-107.77 47.35 34.40 70
8 06/18/2020 19:50:21 -70.52, 59.38 132.97 06/18/2020 19:50:30 -70.52, 59.36 132.97 0.80 9
9 06/18/2020 20:41:05 70.44,-133.16 46.95 06/18/2020 20:39:57 70.42,-133.15 46.94 1.76 68
10 06/21/2020 11:16:13 71.21, 6.83 47.75 06/21/2020 11:17:21 71.09, 8.48 47.58 60.77 68
11 06/21/2020 12:06:44 -70.56, 175.24 132.94 06/21/2020 12:06:59 -70.55, 175.28 132.95 1.57 15
12 06/21/2020 12:57:27 70.42, -17.23 46.92 06/21/2020 12:56:26 70.45, -17.23 46.95 2.60 61
13 06/24/2020 03:32:41 71.46, 122.31 48.05 06/24/2020 03:33:47 71.33, 124.75 47.85 87.71 66
14 06/24/2020 04:23:07 -70.54, -68.82 132.92 06/24/2020 04:23:30 -70.52, -68.89 132.94 3.28 23
15 06/24/2020 05:13:51 70.46, 98.61 47.01 06/24/2020 05:12:56 70.47, 98.68 47.01 2.46 55
16 06/26/2020 20:39:31 -70.58, 47.03 132.79 06/26/2020 20:39:59 -70.59, 47.10 132.78 3.23 28
17 06/26/2020 21:30:14 70.45,-145.46 47.09 06/26/2020 21:29:27 70.43,-145.50 47.06 3.17 47




NCC Satellite Simultaneous Nadir Overpasses (SNOs) Prediction Service
